Location: Unspecified
(0.0000°N, 0.0000°E)
Time: 18:47:35
(UTC+00:00)

deb Explorer IX - Pass Details

Date: 23 November 2019
Orbit: 545 x 1105 km, 38.8° (Epoch: 05 December)

Event Time Altitude Azimuth Distance (km) Brightness Sun altitude
Rises 06:11:08 0° 339° (NNW) 2,989 ? 5.8°
Reaches altitude 10° 06:14:34 10° 2° (N) 1,975 ? 6.6°
Maximum altitude 06:17:05 15° 37° (NE) 1,628 ? 7.2°
Drops below altitude 10° 06:19:29 10° 72° (ENE) 1,863 ? 7.8°
Sets 06:22:32 0° 96° (E) 2,715 ? 8.5°
